Regional Weather Roundup
Issued by NWS Kansas City/Pleasant Hill, MO

Home | Current Version | Previous Version | Graphics & Text | Print | Product List | Glossary Off
Versions: 1 2 3 4 5 6 7 8 9 10 11 12 13 14 15 16 17 18 19 20 21 22 23 24 25 26 27 28

000
ASUS43 KEAX 221710
RWREAX

WEATHER ROUNDUP FOR EASTERN KANSAS AND NORTHWEST MISSOURI
NATIONAL WEATHER SERVICE KANSAS CITY/PLEASANT HILL MO
1200 PM CDT WED MAR 22 2017

KSZ040-057-103>105-MOZ028-029-037-043-221800-
...KANSAS CITY METROPOLITAN AREA...

CITY           SKY/WX    TMP DP  RH WIND       PRES   REMARKS
K.C. INTL      PTSUNNY   50  24  36 E15       30.37S
K.C. DOWNTOWN  SUNNY     52  25  35 SE7       30.36F
LEES SUMMIT    SUNNY     50  25  37 E14       30.36S
OLATHE - IXD   CLOUDY    50  23  34 E12       30.35S
OLATHE - OJC   CLOUDY    50  25  37 E14G20    30.35R
LAWRENCE       MOSUNNY   50  22  33 E13       30.35F

$$

MOZ001>008-011>017-020>025-030>033-038>040-044>046-053-054-221800-
...NORTHERN AND CENTRAL MISSOURI...

CITY           SKY/WX    TMP DP  RH WIND       PRES   REMARKS
ST. JOSEPH     SUNNY     49  25  39 E10       30.39F
MOSBY          CLOUDY    46  27  46 E14G20    30.39R
WARRENSBURG    MOSUNNY   50  28  43 E13G20    30.37R
WHITEMAN AFB   PTSUNNY   50  28  43 E12       30.36R
CLINTON        SUNNY     50  27  40 SE14G21   30.34S
SEDALIA        CLOUDY    49  30  48 E13G23    30.37F
WARSAW         NOT AVBL
CHILLICOTHE      N/A     43  27  53 E12G18    30.43F
KIRKSVILLE     CLOUDY    42  24  49 E17       30.46F WCI  34

$$

MOZ041-047>049-056>058-063>065-088>090-097-221800-
...EASTERN AND SOUTHERN MISSOURI...

CITY           SKY/WX    TMP DP  RH WIND       PRES   REMARKS
ST. LOUIS INTL PTSUNNY   45  21  38 E13       30.47F
SPIRIT OF STL  SUNNY     46  25  43 E14G21    30.46F
COLUMBIA       CLOUDY    47  29  49 E14       30.40F
JEFFERSON CITY SUNNY     47  28  47 E14       30.42F
ROLLA          SUNNY     47  28  47 E15       30.38S
OSAGE BEACH    SUNNY    N/A N/A N/A E13       30.38F
SPRINGFIELD    SUNNY     54  28  36 E15G23    30.29F
BRANSON        CLOUDY    46  36  66 SE9G16    30.32F
JOPLIN         CLOUDY    53  28  38 SE16G22   30.27F
WEST PLAINS    SUNNY     53  33  46 E9        30.34F

$$

IAZ060-094-KSZ022-034>040-054-083-096-NEZ052-066-093-221800-
...KANSAS...SOUTHEAST NEBRASKA AND IOWA...

CITY           SKY/WX    TMP DP  RH WIND       PRES   REMARKS
TOPEKA         PTSUNNY   50  24  36 E9        30.34F
MANHATTAN      PTSUNNY   51  25  36 E13       30.32F
EMPORIA        SUNNY     54  25  32 E15       30.29F
CHANUTE        PTSUNNY   56  24  29 E15       30.28S
WICHITA        CLOUDY    52  30  43 SE16      30.25F
OMAHA          CLOUDY    40  23  50 SE12      30.41F WCI  33
LINCOLN        MOSUNNY   45  18  34 SE15      30.36F
FALLS CITY     CLOUDY    45  21  38 E10       30.38F
LAMONI         CLOUDY    39  26  59 E9G18     30.42F WCI  33
DES MOINES     CLOUDY    39  24  55 E14       30.47F WCI  31

$$





USA.gov is the U.S. government's official web portal to all federal, state and local government web resources and services.